Home > Time Zones > World Clock > Weather > U.S.A. > Hilo > Past weeks

Flag for U.S.A. Weather past 2 weeks in Hilo, Hawaii, U.S.A.

Now
69 °F

Clear.


Feels Like: 69 °F
Forecast: 66 / 81 °F
Wind: 7 mph from Southwest

Location: Hilo International Airport

Current Time: Oct 25, 2014 at 4:42:35 AM

Latest Report: Oct 25, 2014 at 3:53 AM


Visibility: 10 mi

Pressure: 29.99 "Hg

Humidity: 70%

Dew point: 59 °F

Location of HiloLocation

Historic Weather in Hilo — Graph

°F

Hilo temperature yesterday

Maximum temperature yesterday: 86 °F (at 11:53 AM)
Minimum temperature yesterday: 70 °F (at 6:53 AM)
Average temperature yesterday: 77 °F

Past Weeks' High & Low Weather Summary

 TemperatureHumidityPressure
High87 °F (Oct 21, 11:53 AM)100% (Oct 13, 1:46 PM)30.07 "Hg (Oct 13, 1:46 PM)
Low66 °F (Oct 13, 9:53 PM)53% (Oct 24, 11:53 AM)29.88 "Hg (Oct 16, 2:53 PM)
Average76 °F82%29.99 "Hg
* Reported Oct 10 2:12 AM — Oct 25 2:53 AM, Hilo, Weather by CustomWeather, © 2014

Note: Actual official high and low records may vary slightly from our data, if they occured in-between our weather recording intervals... More about our weather records

Advertising

Hilo weather history for previous 24 hours

 ConditionsComfort  
Time TempWeatherWind HumidityBarometerVisibility
2:53 AM
Oct 25
69 °FClear.7 mph70%30.00 "Hg10 mi
1:53 AM70 °FClear.8 mph71%30.01 "Hg10 mi
12:53 AM70 °FClear.7 mph73%30.03 "Hg10 mi
11:53 PM
Oct 24
71 °FPassing clouds.7 mph76%30.03 "Hg10 mi
10:53 PM71 °FClear.7 mph78%30.05 "Hg10 mi
9:53 PM72 °FClear.7 mph81%30.06 "Hg10 mi
8:53 PM74 °FClear.5 mph88%30.06 "Hg10 mi
7:53 PM75 °FClear.3 mph85%30.05 "Hg10 mi
6:53 PM77 °FClear.No wind79%30.03 "Hg10 mi
5:53 PM78 °FClear.3 mph76%30.01 "Hg10 mi
4:53 PM79 °FSunny.6 mph74%29.99 "Hg10 mi
3:53 PM84 °FPassing clouds.9 mph61%29.98 "Hg10 mi
2:53 PM84 °FSunny.13 mph61%29.98 "Hg10 mi
1:53 PM85 °FPassing clouds.10 mph61%29.98 "Hg10 mi
12:53 PM86 °FPassing clouds.9 mph55%30.00 "Hg10 mi
11:53 AM86 °FPassing clouds.7 mph53%30.03 "Hg10 mi
10:53 AM83 °FPassing clouds.3 mph57%30.05 "Hg10 mi
9:53 AM83 °FPassing clouds.3 mph61%30.06 "Hg10 mi
8:53 AM80 °FPassing clouds.5 mph69%30.06 "Hg10 mi
7:53 AM75 °FScattered clouds.No wind85%30.05 "Hg10 mi
6:53 AM70 °FScattered clouds.3 mph90%30.02 "Hg10 mi
5:53 AM71 °FPassing clouds.5 mph84%30.00 "Hg10 mi
4:53 AM72 °FPassing clouds.7 mph81%30.00 "Hg10 mi
Weather by CustomWeather, © 2014

See weather overviewHow to use our weather pages